Newport News, VA

11:01 AM EDT on April 28, 2017 (GMT -0400)
Newport News-Williamsburg International

Weather History for KPHF - December, 2013

Change the Weather History Date:

Wednesday, December 25, 2013

  Actual Average Record
Temperature  
Mean Temperature 32 °F -  
Max Temperature 37 °F 51 °F 75 °F (2015)
Min Temperature 27 °F 31 °F 12 °F (1980)
Degree Days  
Heating Degree Days 33    
Moisture  
Dew Point 17 °F    
Average Humidity 57    
Maximum Humidity 78    
Minimum Humidity 43    
Precipitation  
Precipitation 0.00 in - - ()
Sea Level Pressure  
Sea Level Pressure 30.50 in    
Wind  
Wind Speed 7 mph (NNE)    
Max Wind Speed 13 mph    
Max Gust Speed 17 mph    
Visibility 10 miles    
Events      
Averages and records for this station are not official NWS values.
T = Trace of Precipitation, MM = Missing Value Source: NWS Daily Summary

Daily Weather History Graph

Daily Weather History Graph

Search for Another Location

Airport or City:

Trip Planner

Search our weather history database for the weather conditions in past years. The results will help you decide how hot, cold, wet, or windy it might be!

Date:

Astronomy

Dec. 25, 2013 Rise Set
Actual Time 7:17 AM EST 4:54 PM EST
Civil Twilight 6:48 AM EST 5:23 PM EST
Nautical Twilight 6:16 AM EST 5:56 PM EST
Astronomical Twilight 5:44 AM EST 6:28 PM EST
Moon No Moon Rise 11:50 AM EST (12/25)
Length of Visible Light 10h 35m
Length of Day
9h 37m
Waning Gibbous, 49% of the Moon is Illuminated
Dec 25
Waning Gibbous
Jan 1
New
Jan 7
First Quarter
Jan 15
Full
Jan 24
Last Quarter

Hourly Weather History & Observations

Time (EST) Temp. Windchill Dew Point Humidity Pressure Visibility Wind Dir Wind Speed Gust Speed Precip Events Conditions
12:54 AM 30.9 °F 21.2 °F 10.9 °F 43% 30.45 in 10.0 mi North 12.7 mph - N/A   Clear
1:54 AM 30.0 °F 20.0 °F 10.9 °F 45% 30.48 in 10.0 mi North 12.7 mph 17.3 mph N/A   Clear
2:54 AM 28.9 °F 22.8 °F 12.0 °F 49% 30.50 in 10.0 mi NNW 5.8 mph - N/A   Clear
3:54 AM 28.0 °F 20.8 °F 12.0 °F 51% 30.49 in 10.0 mi North 6.9 mph - N/A   Clear
4:54 AM 28.0 °F 20.8 °F 12.0 °F 51% 30.50 in 10.0 mi North 6.9 mph - N/A   Clear
5:54 AM 27.0 °F 18.7 °F 12.0 °F 53% 30.51 in 10.0 mi North 8.1 mph - N/A   Clear
6:54 AM 27.0 °F 19.5 °F 12.9 °F 56% 30.54 in 10.0 mi North 6.9 mph - N/A   Clear
7:54 AM 28.0 °F 21.7 °F 12.9 °F 53% 30.55 in 10.0 mi North 5.8 mph - N/A   Clear
8:54 AM 30.0 °F 21.7 °F 12.9 °F 49% 30.55 in 10.0 mi North 9.2 mph - N/A   Clear
9:54 AM 32.0 °F 25.6 °F 16.0 °F 52% 30.57 in 10.0 mi North 6.9 mph - N/A   Clear
10:54 AM 35.1 °F 27.9 °F 18.0 °F 50% 30.57 in 10.0 mi NNE 9.2 mph - N/A   Clear
11:54 AM 35.1 °F - 18.0 °F 50% 30.55 in 10.0 mi Calm Calm - N/A   Clear
12:54 PM 37.9 °F - 19.0 °F 47% 30.52 in 10.0 mi Calm Calm - N/A   Clear
1:54 PM 37.0 °F 33.3 °F 19.9 °F 50% 30.50 in 10.0 mi East 4.6 mph - N/A   Clear
2:54 PM 37.0 °F 31.6 °F 21.0 °F 52% 30.50 in 10.0 mi East 6.9 mph - N/A   Clear
3:54 PM 35.1 °F 29.3 °F 19.9 °F 54% 30.51 in 10.0 mi East 6.9 mph - N/A   Clear
4:54 PM 33.1 °F 27.7 °F 19.9 °F 59% 30.51 in 10.0 mi East 5.8 mph - N/A   Clear
5:54 PM 30.9 °F 27.5 °F 19.9 °F 64% 30.50 in 10.0 mi East 3.5 mph - N/A   Clear
6:54 PM 30.0 °F - 21.0 °F 69% 30.49 in 10.0 mi Calm Calm - N/A   Clear
7:54 PM 28.9 °F - 21.0 °F 72% 30.48 in 10.0 mi Calm Calm - N/A   Clear
8:54 PM 28.0 °F - 21.0 °F 75% 30.46 in 10.0 mi Calm Calm - N/A   Clear
9:54 PM 27.0 °F - 21.0 °F 78% 30.45 in 10.0 mi Calm Calm - N/A   Clear
10:54 PM 27.0 °F - 21.0 °F 78% 30.44 in 10.0 mi Calm Calm - N/A   Clear
11:54 PM 27.0 °F - 21.0 °F 78% 30.42 in 10.0 mi Calm Calm - N/A   Clear